Weather History for Jackson, WY

Change the Weather History Date:

Thursday, December 12, 2013

  Actual Average Record
Temperature  
Mean Temperature 4 °F -  
Max Temperature 15 °F 25 °F 41 °F (1977)
Min Temperature -7 °F 0 °F -25 °F (1985)
Degree Days  
Heating Degree Days 61    
Moisture  
Dew Point -4 °F    
Average Humidity 89    
Maximum Humidity 100    
Minimum Humidity 68    
Precipitation  
Precipitation 0.00 in - - ()
Sea Level Pressure  
Sea Level Pressure 30.31 in    
Wind  
Wind Speed 5 mph (North)    
Max Wind Speed 9 mph    
Max Gust Speed -    
Visibility 10 miles    
Events      
Averages and records for this station are not official NWS values.
T = Trace of Precipitation, MM = Missing Value Source: NWS Daily Summary

Daily Weather History Graph

Daily Weather History Graph

Search for Another Location

Airport:

Trip Planner

Search our weather history database for the weather conditions in past years. The results will help you decide how hot, cold, wet, or windy it might be!

Date:

Astronomy

Dec. 12, 2013 Rise Set
Actual Time 7:47 AM MST 4:46 PM MST
Civil Twilight 7:14 AM MST 5:19 PM MST
Nautical Twilight 6:38 AM MST 5:55 PM MST
Astronomical Twilight 6:03 AM MST 6:30 PM MST
Moon 2:01 PM MST (12/12) 3:07 AM MST (12/12)
Length of Visible Light 10h 04m
Length of Day
8h 59m
Waxing Gibbous, 81% of the Moon is Illuminated
Dec 12
Waxing Gibbous
Dec 17
Full
Dec 25
Last Quarter
Jan 1
New
Jan 7
First Quarter

Hourly Weather History & Observations

Time (MST) Temp. Windchill Dew Point Humidity Pressure Visibility Wind Dir Wind Speed Gust Speed Precip Events Conditions
12:15 AM -4.0 °F -19.0 °F -5.8 °F 92% 30.44 in 10.0 mi North 8.1 mph - N/A   Clear
12:35 AM -4.0 °F -12.4 °F -5.8 °F 92% 30.44 in 10.0 mi NNE 3.5 mph - N/A   Clear
12:55 AM -4.0 °F -12.4 °F -5.8 °F 92% 30.43 in 10.0 mi North 3.5 mph - N/A   Clear
1:15 AM -5.8 °F -18.4 °F -7.6 °F 92% 30.42 in 10.0 mi North 5.8 mph - N/A   Clear
1:35 AM -4.0 °F -20.2 °F -5.8 °F 92% 30.42 in 10.0 mi North 9.2 mph - N/A   Clear
1:55 AM -5.8 °F -18.4 °F -7.6 °F 92% 30.42 in 10.0 mi North 5.8 mph - N/A   Clear
2:15 AM -5.8 °F -19.9 °F -7.6 °F 92% 30.43 in 10.0 mi North 6.9 mph - N/A   Clear
2:35 AM -5.8 °F -19.9 °F -7.6 °F 92% 30.43 in 10.0 mi North 6.9 mph - N/A   Clear
2:55 AM -5.8 °F -16.7 °F -7.6 °F 92% 30.44 in 10.0 mi NNE 4.6 mph - N/A   Clear
3:15 AM -5.8 °F - -7.6 °F 92% 30.43 in 10.0 mi Calm Calm - N/A   Clear
3:35 AM -7.6 °F -20.6 °F -9.4 °F 92% 30.43 in 10.0 mi NNE 5.8 mph - N/A   Clear
3:55 AM -7.6 °F -22.1 °F -9.4 °F 92% 30.42 in 10.0 mi North 6.9 mph - N/A   Clear
4:15 AM -7.6 °F -23.4 °F -9.4 °F 92% 30.42 in 10.0 mi North 8.1 mph - N/A   Clear
4:35 AM -7.6 °F -22.1 °F -9.4 °F 92% 30.42 in 10.0 mi North 6.9 mph - N/A   Clear
4:55 AM -7.6 °F -18.8 °F -9.4 °F 92% 30.42 in 10.0 mi NNE 4.6 mph - N/A   Clear
5:15 AM -7.6 °F -22.1 °F -9.4 °F 92% 30.41 in 10.0 mi North 6.9 mph - N/A   Clear
5:35 AM -7.6 °F -20.6 °F -9.4 °F 92% 30.41 in 10.0 mi North 5.8 mph - N/A   Clear
5:55 AM -7.6 °F -22.1 °F -9.4 °F 92% 30.41 in 10.0 mi North 6.9 mph - N/A   Clear
6:15 AM -7.6 °F -23.4 °F -9.4 °F 92% 30.41 in 10.0 mi North 8.1 mph - N/A   Clear
6:35 AM -7.6 °F -20.6 °F -9.4 °F 92% 30.41 in 10.0 mi North 5.8 mph - N/A   Clear
6:54 AM -5.8 °F - -9.4 °F 84% 30.40 in 10.0 mi Calm Calm - N/A   Clear
7:56 AM -7.6 °F - -9.4 °F 92% 30.40 in 10.0 mi Calm Calm - N/A   Clear
8:59 AM -2.2 °F - -5.8 °F 85% 30.40 in 10.0 mi Calm Calm - N/A   Clear
9:52 AM 1.4 °F - -0.4 °F 92% 30.40 in 10.0 mi Calm Calm - N/A   Clear
10:51 AM 6.8 °F - 1.4 °F 79% 30.37 in 10.0 mi Calm Calm - N/A   Clear
11:51 AM 10.4 °F - 3.2 °F 73% 30.34 in 10.0 mi Calm Calm - N/A   Clear
12:53 PM 12.2 °F - 6.8 °F 79% 30.29 in 10.0 mi Calm Calm - N/A   Clear
1:51 PM 15.8 °F - 6.8 °F 68% 30.24 in 10.0 mi Calm Calm - N/A   Clear
2:51 PM 15.8 °F - 8.6 °F 73% 30.21 in 10.0 mi Calm Calm - N/A   Clear
3:51 PM 15.8 °F - 8.6 °F 73% 30.19 in 10.0 mi Calm Calm - N/A   Clear
4:52 PM 12.2 °F - 6.8 °F 79% 30.19 in 10.0 mi Calm Calm - N/A   Clear
5:57 PM 6.8 °F - 3.2 °F 85% 30.17 in 10.0 mi Calm Calm - N/A   Clear
6:52 PM -0.4 °F -12.0 °F -2.2 °F 92% 30.15 in 10.0 mi North 5.8 mph - N/A   Clear
7:52 PM -0.4 °F -13.4 °F -2.2 °F 92% 30.14 in 10.0 mi North 6.9 mph - N/A   Clear
8:55 PM -0.4 °F -13.4 °F -2.2 °F 92% 30.13 in 10.0 mi North 6.9 mph - N/A   Clear
9:15 PM -2.2 °F -14.2 °F -5.8 °F 85% 30.13 in 10.0 mi North 5.8 mph - N/A   Clear
9:35 PM -2.2 °F -12.5 °F -2.2 °F 100% 30.13 in 10.0 mi NE 4.6 mph - N/A   Clear
9:55 PM -2.2 °F - -5.8 °F 85% 30.13 in 10.0 mi Calm Calm - N/A   Clear
10:15 PM -2.2 °F -12.5 °F -5.8 °F 85% 30.12 in 10.0 mi North 4.6 mph - N/A   Clear
10:35 PM -4.0 °F -16.3 °F -5.8 °F 92% 30.12 in 9.0 mi North 5.8 mph - N/A   Clear
10:55 PM -2.2 °F -12.5 °F -2.2 °F 100% 30.12 in 10.0 mi NNE 4.6 mph - N/A   Clear
11:15 PM -2.2 °F -16.8 °F -4.0 °F 92% 30.12 in 10.0 mi North 8.1 mph - N/A   Clear
11:35 PM -2.2 °F -12.5 °F -4.0 °F 92% 30.11 in 10.0 mi NE 4.6 mph - N/A   Clear
11:55 PM -2.2 °F -12.5 °F -5.8 °F 85% 30.11 in 10.0 mi North 4.6 mph - N/A   Clear